Location: B�rgermoos
(47.6500°N, 9.0667°E)
Time: 00:20:33
(UTC+00:00)

Tiros 1 - Pass Details

Date: 11 August 2021
Orbit: 630 x 663 km, 48.4° (Epoch: 19 September)

Event Time Altitude Azimuth Distance (km) Brightness Sun altitude
Rises 17:16:18 0° 280° (W) 2,994 12.7 13.2°
Reaches altitude 10° 17:18:40 10° 280° (W) 2,078 13.4 12.8°
Maximum altitude 17:23:29 89° 192° (SSW) 662 7.5 12.0°
Drops below altitude 10° 17:28:14 10° 103° (ESE) 2,057 9.2 11.2°
Sets 17:30:34 0° 103° (ESE) 2,961 9.9 10.8°
